Regional Weather Roundup
Issued by NWS Cleveland, OH

Home | Current Version | Previous Version | Text Only | Print | Product List | Glossary Off
Versions: 1 2 3 4 5 6 7 8 9 10 11 12 13 14 15 16 17 18 19 20 21 22 23 24 25 26 27 28 29 30 31 32 33 34 35 36 37 38 39 40 41 42 43 44 45 46 47 48 49 50

000
ASUS41 KCLE 291302
RWRCLE
OHIO REGIONAL WEATHER ROUNDUP
NATIONAL WEATHER SERVICE CLEVELAND, OH
900 AM EDT FRI MAY 29 2015

NOTE: "FAIR" INDICATES FEW OR NO CLOUDS BELOW 12,000 FEET WITH NO
SIGNIFICANT WEATHER AND/OR OBSTRUCTIONS TO VISIBILITY.

OHZ001>008-015>018-024>027-034-035-043-044-291400-
   NORTHWEST OHIO

CITY           SKY/WX    TMP DP  RH WIND       PRES   REMARKS
DEFIANCE       PTSUNNY   71  64  78 S5        30.13S
FINDLAY        LGT RAIN  69  64  84 S9        30.15S
TOLEDO EXPRESS CLOUDY    69  61  75 S5        30.13F
TOLEDO EXEC    CLOUDY    70  60  70 SE10      30.13F
LIMA           CLOUDY    69  67  93 SE8       30.15F
$$

OHZ009>014-019>023-028>033-038-089-291400-
   NORTHEAST OHIO

CITY           SKY/WX    TMP DP  RH WIND       PRES   REMARKS
CLE-HOPKINS    PTSUNNY   72  57  59 S13       30.20S
CLE-LAKEFRONT  SUNNY     74  57  55 S12       30.17S
CUY CO. ARPT   PTSUNNY   73  59  60 S12       30.19F
LORAIN-ELYRIA  MOSUNNY   70  58  65 S8        30.18S
ASHTABULA      SUNNY     70  58  65 SE9       30.22F
AKRON-CANTON   MOSUNNY   72  56  57 SE10      30.20S
WOOSTER        PTSUNNY   68  59  73 SE6       30.20F
MANSFIELD      CLOUDY    69  59  70 SE9       30.19S
YOUNGSTOWN     PTSUNNY   70  56  61 SE9       30.22S
$$

OHZ042-051>053-060>062-070>072-077>081-291400-
  SOUTHWEST OHIO

CITY           SKY/WX    TMP DP  RH WIND       PRES   REMARKS
CINC-COVINGTON PTSUNNY   70  67  90 S7        30.15F
CINC-LUNKEN    MOSUNNY   69  68  96 S6        30.15F
HAMILTON       SUNNY     73  68  84 VRB6      30.15F
DAYTON         CLOUDY    71  68  90 SE7       30.16S
WRIGHT-PAT AFB PTSUNNY   73  68  84 E6        30.15S
DAYTON GENERAL MOSUNNY   71  67  87 SE7       30.15S
WILMINGTON     MOSUNNY   74  65  73 S12       30.16S
$$

OHZ036-037-039>041-045>050-054>059-063>069-073>076-082>088-291400-
  CENTRAL AND SOUTHEAST OHIO

CITY           SKY/WX    TMP DP  RH WIND       PRES   REMARKS
COLUMBUS       CLOUDY    72  62  71 S7        30.17R
OSU AIRPORT    PTSUNNY   73  63  70 SE9       30.17S
BOLTON FIELD   MOSUNNY   73  66  78 SE9       30.18R
RICKENBACK AFB NOT AVBL
NEWARK         CLOUDY    71  63  75 CALM      30.18S
MARION         CLOUDY    71  61  70 S9        30.17R
LANCASTER      CLOUDY    70  63  78 SE7       30.18S
ZANESVILLE     NOT AVBL
NEW PHILLY     MOSUNNY   72  60  66 SE5       30.20S
$$



USA.gov is the U.S. government's official web portal to all federal, state and local government web resources and services.